Find Starlink 30500

NORAD ID: 58076 Int'l Des: 2023-160 Owner: SPXS Country: US Constellation: starlink operational
LEOCIRCULAR

实时位置

正在加载3D地球...

关于 Starlink 30500

正在加载描述...

即将过境

Passes for default location (London). Set your location on the main map for personalized predictions.

高度历史

Loading altitude history...

两行轨道根数

1 58076U 23160B 26107.31888133 .00001857 00000-0 76997-4 0 9992
2 58076 43.0016 219.7175 0001566 266.5699 93.4973 15.27580428138857
Epoch: Apr 17, 2026 • Age: 7 hours

当前状态

高度 487.0 km
速度 7.63 km/s
星下点 42.09°N, 127.26°W
发射日期 Oct 18, 2023
运行时间 2.4 years
类型 internet

技术详情

分类 Payload
质量 730.00 kg
干质量 700.00 kg
总质量 730.00 kg
长度 0.30 m
直径 4.10 m
跨度 29.00 m
形状 Box + pan
制造商 SPXS
平台类型 Starlink V2M
阶段状态 In Orbit
所有者/国家 SPXS/US

Most Searched